NOAA 21 (JPSS-2)

Last updated on Sun Oct 06 2024 00:02:18 GMT+0000 (Coordinated Universal Time)

1 54234U 22150A 24279.54540651 .00000839 00000+0 41914-3 0 9993 2 54234 98.7583 216.1694 0001516 127.2088 232.9226 14.19526634 98633
UTC large
Height (km)
Speed (km/s)
/
Latitude / Longitude
Inclination (degrees)
Orbital Period (minutes)
Azimuth
Elevation
Range (km)
Doppler Factor

Next 0 passes for location: London (51.5072 / 0.1276)

Sorry there are no passes over London.